Location: Caltech
(34.1382°N, 118.1253°W)
Time: 19:56:15
(UTC-08:00)

Cosmos 2237 Rocket - Visible Passes

Search period start: 19 February 2017 00:00
Search period end: 01 March 2017 00:00
Orbit: 834 x 851 km, 71.0° (Epoch: 18 February)

Date Brightness Start Highest point End Pass type
(mag) Time Alt. Az. Time Alt. Az. Time Alt. Az.
22 Feb 4.7 20:47:13 10° NNW 20:47:35 12° NNW 20:47:35 12° NNW visible
23 Feb 4.4 20:32:25 10° NNW 20:33:34 16° N 20:33:34 16° N visible
24 Feb 4.0 20:17:36 10° NNW 20:19:37 22° N 20:19:37 22° N visible
25 Feb 3.5 20:02:47 10° N 20:05:45 30° N 20:05:45 30° N visible
26 Feb 2.9 19:47:59 10° N 19:52:00 40° NNE 19:52:00 40° NNE visible
26 Feb 5.0 21:33:24 10° WNW 21:33:53 12° WNW 21:33:53 12° WNW visible
27 Feb 2.4 19:33:11 10° N 19:38:23 48° NE 19:38:23 48° NE visible
27 Feb 4.7 21:18:25 10° WNW 21:20:16 16° WNW 21:20:16 16° WNW visible
28 Feb 2.4 19:18:23 10° N 19:23:52 46° ENE 19:24:56 41° E visible
28 Feb 4.4 21:03:28 10° NW 21:06:50 20° W 21:06:50 20° W visible
